Torna al catalogo

CZ-4C DEB

AttivoLEO
NORAD 39243·DEBRIS·🇨🇳 China

Lanciato Sep 1, 2013 da Jiuquan Satellite Launch Center

Loading…

Prossimi Passaggi (prossime 24 ore)

TLE

AggiornatoSource: Space-Track

Epoca: Sep 14, 2026, 07:58 UTC

1 39243U 13046E   26257.33224595  .00000104  00000-0  18319-3 0  9990
2 39243  63.3835 236.2759 0441225  13.2362 347.9808 13.45114478639993

Traccia CZ-4C DEB in tempo reale con AllMySat

Download on the App Store